Flag for Sweden Weather past 2 weeks in Norrköping, Sweden

Now
61 °F

Refreshingly cool.


Feels Like: 61 °F
Forecast: 51 / 69 °F
Wind: 6 mph from Southeast

Location: Norrkoping Airport

Current Time: Aug 3, 2015 at 9:22:26 PM

Latest Report: Aug 3, 2015 at 8:50 PM


Visibility: N/A

Pressure: 30.15 "Hg

Humidity: 59%

Dew point: 46 °F

Location of NorrköpingLocation

Historic Weather in Norrköping — Graph

°F

Norrköping temperature yesterday

Maximum temperature yesterday: 68 °F (at 1:50 PM)
Minimum temperature yesterday: 46 °F (at 5:20 AM)
Average temperature yesterday: 59 °F

Past Weeks' High & Low Weather Summary

 TemperatureHumidityPressure
High72 °F (Aug 3, 4:20 PM)100% (Jul 21, 5:50 AM)30.15 "Hg (Jul 21, 5:50 AM)
Low43 °F (Jul 25, 5:20 AM)38% (Aug 3, 2:50 PM)29.33 "Hg (Jul 26, 12:20 PM)
Average59 °F81%29.70 "Hg
* Reported Jul 19 7:20 PM — Aug 3 7:50 PM, Norrköping, Weather by CustomWeather, © 2015

Note: Actual official high and low records may vary slightly from our data, if they occured in-between our weather recording intervals... More about our weather records

Advertising

Norrköping weather history for previous 24 hours

 ConditionsComfort  
Time TempWeatherWind HumidityBarometerVisibility
7:50 PM
Mon, Aug 3
66 °FSunny.9 mph52%30.12 "Hg10 mi
7:20 PM66 °FSunny.7 mph56%30.12 "Hg10 mi
6:50 PM70 °FSunny.5 mph43%30.12 "Hg10 mi
6:20 PM72 °FSunny.2 mph44%30.15 "Hg10 mi
5:50 PM70 °FSunny.2 mph40%30.15 "Hg10 mi
5:20 PM70 °FSunny.5 mph43%30.15 "Hg10 mi
4:50 PM72 °FSunny.3 mph41%30.15 "Hg10 mi
4:20 PM72 °FPassing clouds.3 mph38%30.15 "HgN/A
3:50 PM70 °FPassing clouds.5 mph38%30.15 "HgN/A
3:20 PM70 °FPassing clouds.6 mph38%30.15 "HgN/A
2:50 PM70 °FPassing clouds.6 mph38%30.15 "HgN/A
2:20 PM70 °FPassing clouds.5 mph43%30.15 "HgN/A
1:50 PM70 °FScattered clouds.5 mph40%30.15 "HgN/A
1:20 PM68 °FScattered clouds.7 mph53%30.15 "HgN/A
12:50 PM68 °FScattered clouds.6 mph53%30.15 "HgN/A
12:20 PM66 °FPassing clouds.6 mph56%30.15 "HgN/A
11:20 AM64 °FPassing clouds.5 mph64%30.15 "HgN/A
10:50 AM64 °FPassing clouds.6 mph64%30.15 "HgN/A
10:20 AM63 °FSunny.6 mph73%30.15 "Hg10 mi
9:50 AM61 °FPassing clouds.5 mph72%30.15 "HgN/A
9:20 AM61 °FPassing clouds.3 mph77%30.12 "HgN/A
8:50 AM59 °FPassing clouds.5 mph82%30.12 "HgN/A
8:20 AM57 °FSunny.7 mph88%30.12 "Hg10 mi
7:50 AM55 °FSunny.7 mph94%30.12 "Hg10 mi
7:20 AM55 °FCool.7 mph88%30.12 "HgN/A
6:50 AM54 °FCool.6 mph94%30.12 "HgN/A
6:20 AM52 °FCool.5 mph94%30.12 "HgN/A
5:50 AM48 °FCool.5 mph100%30.12 "HgN/A
5:20 AM46 °FCool.5 mph100%30.09 "HgN/A
4:50 AM48 °FCool.6 mph100%30.09 "HgN/A
4:20 AM48 °FCool.7 mph94%30.09 "HgN/A
3:50 AM48 °FCool.5 mph100%30.09 "HgN/A
3:20 AM50 °FCool.6 mph94%30.09 "HgN/A
2:50 AM50 °FCool.5 mph94%30.09 "HgN/A
2:20 AM50 °FCool.5 mph94%30.09 "HgN/A
1:50 AM52 °FCool.5 mph94%30.09 "HgN/A
1:20 AM50 °FCool.6 mph94%30.09 "HgN/A
12:50 AM52 °FCool.5 mph88%30.09 "HgN/A
12:20 AM52 °FCool.6 mph88%30.09 "HgN/A
11:20 PM
Sun, Aug 2
54 °FCool.6 mph88%30.07 "HgN/A
10:50 PM55 °FCool.7 mph82%30.07 "HgN/A
10:20 PM57 °FCool.8 mph77%30.07 "HgN/A
9:50 PM57 °FCool.8 mph77%30.07 "HgN/A
9:20 PM59 °FCool.9 mph68%30.07 "HgN/A
Weather by CustomWeather, © 2015

See weather overviewHow to use our weather pages